Погода в Габрове

Болгария     42°52′09″N   25°18′51″E
темп.,
°C
ветер,
м/с
пор.,
м/с
влажн.,
%
обл.,
%
осадки,
мм/ч
давл.,
гПа
погр.,
м
16 октября, сб
сб1600:00+8ссв1299100 4.0 101363
03:00+8св12100100 6.4 1012171
06:00+7с2398100 1.8 1011146
09:00+7с3497100 5.4 1013154
12:00+7ссз3497100 1.0 1013209
15:00+7ссз3597100 2.4 1014249
18:00+6ссз3697100 2.7 1016280
21:00+6с3597100 4.6 1018233
17 октября, вс
вс1700:00+6ссз359792 0.3 1019236
03:00+6с3598100 0.3 1020315
06:00+6с3498100 0.1 1020302
09:00+6с2398100 0.4 1021169
12:00+7с229491 0.1 1022209
15:00+9с228687 0.1 1021414
18:00+8ссв229081 0.0 1021200
21:00+7ссз1193100 0.0 102226
18 октября, пн
пн1800:00+8зюз118972 0.0 102210
03:00+6з019149 0.0 102210
06:00+7з118983 0.0 102210
09:00+8ссз118573 0.0 102369
12:00+12юв016832 0.0 1022793
15:00+12св017191 0.6 1021639
18:00+10с1184100 0.4 102146
21:00+8ссз22903 0.6 102315
19 октября, вт
вт1900:00+7сз12922 0.0 102413
03:00+7сз129198 0.0 102513
06:00+6сз229155 0.0 102523
09:00+7ссз23820 0.0 1026101
12:00+12ссз34521 0.0 1026953
15:00+13ссз345031 0.0 10251111
18:00+9с237256 0.0 102749
21:00+7ссз1279100 0.0 102920
20 октября, ср
ср2000:00+6зсз017938 0.0 103012
03:00+7ю227596 0.0 103058
06:00+5ююз228947 0.0 103035
09:00+7ю239462 0.0 1030210
12:00+9ю238166 0.0 1030513
15:00+11ю336718 0.0 1027719
18:00+9ю2382100 0.0 102676
21:00+6ююз239227 0.0 102749